Location: Oshawa
(43.9000°N, 78.8670°W)
Time: 06:49:02
(UTC-05:00)

Transit 2A Rocket - Visible Passes

Search period start: 05 March 2015 00:00
Search period end: 15 March 2015 01:00
Orbit: 585 x 922 km, 66.7° (Epoch: 04 March)

Date Brightness Start Highest point End Pass type
(mag) Time Alt. Az. Time Alt. Az. Time Alt. Az.
05 Mar 8.1 19:45:06 10° WNW 19:48:29 15° WSW 19:51:28 10° SW visible
06 Mar 7.7 19:01:57 10° NW 19:06:48 25° WSW 19:11:18 10° SSW visible
09 Mar 8.2 19:39:18 10° WNW 19:43:10 17° WSW 19:46:38 10° SW visible
